[[{"header":{"parameterUnit":"m.s-1","parameterCategory":1,"la1":30.2991,"la2":30.254,"lo1":-89.0895,"lo2":-89.0444,"dy":0.0017,"dx":0.0017,"nx":28,"ny":28,"refTime":"2024-04-06T03:00:00:Z","depth":0,"parameterNumber":2,"parameterNumberName":"U-component_of_WINDS"},"data":[0,0,0,0,0,0,0,0,0,0,0,0,0,0,0,0,0,0,0,0,0,0,0,0,0,0,0,0,0,0,0,0,0,0,0,0,0,0,0,0,0,0,0,0,0,0,0,0,0,0,0,0,0,0,0,0,0,0,-2.9274,-2.9276,0,-2.9392,-2.9393,-2.9395,-2.94,-2.9398,-2.9397,-2.9395,-2.9515,-2.9519,-2.9524,0,0,0,0,0,0,0,0,0,0,0,0,0,-2.9053,-2.9057,-2.9274,-2.9276,-2.9277,-2.9392,-2.9393,-2.9395,-2.94,-2.9398,-2.9396,-2.9395,-2.9513,-2.9519,-2.9524,0,0,0,0,0,0,0,0,0,0,0,0,0,-2.9158,-2.9058,-2.9274,-2.9293,-2.9296,-2.9391,-2.9393,-2.9395,-2.94,-2.9398,-2.9396,-2.9394,-2.9512,-2.9518,-2.9525,-2.9608,0,0,-2.9545,-2.9548,0,0,0,0,0,0,0,0,-2.9152,-2.9166,-2.9289,-2.9292,-2.9296,-2.9379,-2.9359,-2.9467,-2.9401,-2.9361,-2.9395,-2.9393,-2.9471,-2.9481,-2.9508,-2.9614,-2.9619,-2.9546,-2.955,-2.9553,-2.9555,0,0,0,0,0,0,0,-2.9144,-2.9161,-2.9321,-2.9291,-2.9295,-2.9296,-2.9309,-2.938,-2.9426,-2.9364,-2.9365,-2.9379,-2.9473,-2.9501,-2.9511,-2.9621,-2.9546,-2.9552,-2.9556,-2.9558,-2.9801,-2.9803,0,0,0,0,0,0,-2.9133,-2.9155,-2.9317,-2.9324,-2.9217,-2.9302,-2.9316,-2.9354,-2.9425,-2.9434,-2.938,-2.9378,-2.9491,-2.9503,-2.9515,-2.9616,-2.9553,-2.9559,-2.9563,-2.9798,-2.9801,-2.9804,0,0,0,0,0,0,-2.9129,-2.9148,-2.9312,-2.924,-2.9261,-2.9308,-2.9351,-2.9358,-2.9386,-2.9438,-2.9446,-2.9401,-2.949,-2.9505,-2.9585,-2.962,-2.9562,-2.9568,-2.9795,-2.9799,-2.9802,-2.982,0,0,0,0,0,0,-2.9122,-2.9146,-2.9178,-2.924,-2.9265,-2.938,-2.9353,-2.9362,-2.9398,-2.9397,-2.9459,-2.9468,-2.9489,-2.9575,-2.9592,-2.9629,-2.9574,-2.9792,-2.9797,-2.9801,-2.9817,-2.9824,-2.983,0,0,0,0,0,-2.9114,-2.9178,-2.918,-2.9199,-2.9306,-2.9383,-2.9396,-2.942,-2.9401,-2.9433,-2.9467,-2.9466,-2.9615,-2.9583,-2.9602,-2.9641,-2.979,-2.9796,-2.9801,-2.9814,-2.9823,-2.983,0,0,0,0,0,0,-2.9119,-2.9187,-2.9189,-2.9275,-2.9323,-2.9383,-2.9425,-2.9429,-2.9483,-2.9479,-2.9506,-2.952,-2.9599,-2.9629,-2.9592,-2.9726,-2.97,-2.971,-2.9703,-2.9712,-2.9719,-2.9709,-2.9579,0,0,0,0,0,-2.913,-2.9187,-2.9243,-2.9314,-2.9338,-2.9377,-2.9412,-2.9426,-2.9476,-2.9496,-2.9535,-2.9584,-2.9642,-2.9679,-2.9735,-2.9822,-2.9835,-2.9859,-2.9865,-2.9871,-2.9878,-2.9925,-2.9936,-2.9822,-2.9821,-2.9821,0,0,-2.9153,-2.9197,-2.9231,-2.9316,-2.9354,-2.9412,-2.9394,-2.9456,-2.9499,-2.9506,-2.9583,-2.9613,-2.967,-2.9753,-2.9792,-2.978,-2.9913,-2.9878,-2.9882,-2.9886,-2.9932,-2.9943,-2.9952,-2.9825,-2.9825,-2.9824,0,0,-2.9224,-2.9264,-2.9327,-2.9366,-2.9425,-2.9452,-2.9467,-2.9527,-2.9547,-2.9625,-2.9631,-2.9683,-2.9782,-2.9822,-2.9855,-2.9943,-2.9943,-2.996,-2.9995,-3.0041,-3.005,-3.0058,-3.0088,-3.0098,-2.9968,-2.9968,-2.9968,0,-2.9245,-2.9333,-2.9359,-2.9421,-2.9457,-2.9467,-2.953,-2.9568,-2.9642,-2.9667,-2.9653,-2.9777,-2.9816,-2.9908,-2.993,-2.9957,-2.9974,-2.9952,-3.0047,-3.0055,-3.0063,-3.0092,-3.0103,-2.9969,-2.9969,-2.9969,-2.9969,0,-2.9355,-2.9416,-2.946,-2.9531,-2.9573,-2.9636,-2.9671,-2.971,-2.9721,-2.9749,-2.9828,-2.9875,-2.994,-2.9964,-2.9976,-3.0058,-3.0049,-3.0041,-3.0015,-3.0075,-3.0102,-3.0114,-2.9971,-2.9971,-2.997,-2.997,0,0,-2.9431,-2.9517,-2.9532,-2.9564,-2.9631,-2.9678,-2.9741,-2.9806,-2.9838,-2.989,-2.9943,-3.0027,-3.002,-3.0058,-3.0074,-3.0115,-3.0179,-3.0101,-3.0103,-3.0113,-3.0272,-3.0276,-3.0288,-3.0182,-3.0184,-3.0186,-3.0267,0,-2.9508,-2.962,-2.9645,-2.9742,-2.9797,-2.9808,-2.9863,-2.991,-2.9938,-2.9989,-3.002,-3.0079,-3.0066,-3.0088,-3.0129,-3.0163,-3.0211,-3.0158,-3.023,-3.0232,-3.0213,-3.0303,-3.0308,-3.0382,-3.0278,-3.028,-3.0281,0,-2.9612,-2.9666,-2.9768,-2.9827,-2.9851,-2.99,-2.9961,-3.0011,-3.0064,-3.0082,-3.0124,-3.0137,-3.0202,-3.0175,-3.0266,-3.0228,-3.026,-3.0281,-3.0285,-3.029,-3.0258,-3.0309,-3.0406,-3.0416,-3.0298,-3.0297,-3.0296,0,-2.9655,-2.9753,-2.9827,-2.9854,-2.9926,-2.9959,-2.9991,-3.0042,-3.0079,-3.0133,-3.0157,-3.0218,-3.025,-3.0297,-3.0325,-3.0303,-3.0413,-3.0389,-3.0429,-3.0428,-3.0449,-3.0447,-3.055,-3.0473,-3.0473,-3.0473,-3.0473,0,-2.9737,-2.9798,-2.9846,-2.9891,-2.996,-2.999,-3.0057,-3.0089,-3.0134,-3.0185,-3.0199,-3.0247,-3.0282,-3.0335,-3.0358,-3.0429,-3.0444,-3.0459,-3.0464,-3.0457,-3.0454,-3.0476,-3.047,-3.0476,-3.0475,-3.0475,-3.0474,0,-2.9795,-2.983,-2.991,-2.9972,-2.9989,-3.0037,-3.0089,-3.0133,-3.0162,-3.0226,-3.0243,-3.0288,-3.035,-3.0384,-3.0463,-3.0478,-3.0557,-3.056,-3.0538,-3.054,-3.0577,-3.0572,-3.0696,-3.0713,-3.0626,-3.0627,-3.0628,0,-2.9844,-2.9892,-2.9958,-2.9993,-3.0025,-3.0082,-3.012,-3.0151,-3.019,-3.0255,-3.0291,-3.0354,-3.0406,-3.0506,-3.0545,-3.0605,-3.0609,-3.0648,-3.0618,-3.0609,-3.0607,-3.0603,-3.0607,-3.0652,-3.0653,-3.0654,-3.0655,0,-2.9927,-2.9942,-2.9996,-3.0057,-3.0102,-3.0152,-3.02,-3.0228,-3.0267,-3.0311,-3.0375,-3.0415,-3.0496,-3.0558,-3.0621,-3.0653,-3.066,-3.0664,-3.0676,-3.0668,-3.0653,-3.066,-3.0551,-3.0661,-3.066,-3.066,-3.0659,-3.0659,-2.9981,-3.0023,-3.0077,-3.0137,-3.0177,-3.0222,-3.0266,-3.0301,-3.0355,-3.0423,-3.0438,-3.0506,-3.0558,-3.0644,-3.0678,-3.0731,-3.0723,-3.0741,-3.0745,-3.0749,-3.0749,-3.0646,-3.0743,-3.0743,-3.0743,-3.0743,-3.0743,0,-3.0063,-3.0098,-3.0153,-3.0221,-3.0268,-3.0272,-3.0326,-3.0365,-3.0425,-3.0473,-3.0524,-3.0598,-3.0659,-3.0704,-3.0766,-3.08,-3.0805,-3.0815,-3.0812,-3.0819,-3.0753,-3.0736,-3.081,-3.081,-3.081,-3.081,-3.081,-3.081,-3.0111,-3.0183,-3.0204,-3.0296,-3.0331,-3.0397,-3.0427,-3.0469,-3.0508,-3.059,-3.064,-3.067,-3.0717,-3.0783,-3.0838,-3.085,-3.0871,-3.0881,-3.0893,-3.0831,-3.0823,-3.0816,-3.08,-3.0886,-3.0886,-3.0954,-3.0954,-3.0955]},{"header":{"parameterUnit":"m.s-1","parameterCategory":1,"la1":30.2991,"la2":30.254,"lo1":-89.0895,"lo2":-89.0444,"dy":0.0017,"dx":0.0017,"nx":28,"ny":28,"refTime":"2024-04-06T03:00:00:Z","depth":0,"parameterNumber":3,"parameterNumberName":"V-component_of_WINDS"},"data":[0,0,0,0,0,0,0,0,0,0,0,0,0,0,0,0,0,0,0,0,0,0,0,0,0,0,0,0,0,0,0,0,0,0,0,0,0,0,0,0,0,0,0,0,0,0,0,0,0,0,0,0,0,0,0,0,0,0,3.49,3.4901,0,3.4919,3.4919,3.492,3.4853,3.4851,3.4849,3.4847,3.4863,3.4866,3.4868,0,0,0,0,0,0,0,0,0,0,0,0,0,3.4804,3.4806,3.49,3.4901,3.4901,3.4919,3.4919,3.492,3.4853,3.485,3.4848,3.4846,3.4863,3.4865,3.4868,0,0,0,0,0,0,0,0,0,0,0,0,0,3.4836,3.4806,3.49,3.487,3.4867,3.4919,3.4919,3.492,3.4853,3.485,3.4847,3.4845,3.4862,3.4865,3.4868,3.495,0,0,3.4879,3.488,0,0,0,0,0,0,0,0,3.4835,3.484,3.4874,3.4872,3.4869,3.4881,3.4891,3.493,3.4854,3.4859,3.4847,3.4843,3.4871,3.4874,3.4884,3.4951,3.4951,3.4879,3.4881,3.4883,3.4884,0,0,0,0,0,0,0,3.4832,3.4839,3.4908,3.4875,3.4872,3.4854,3.4856,3.4898,3.4881,3.4858,3.4853,3.4857,3.4869,3.4881,3.4884,3.4951,3.4879,3.4882,3.4884,3.4886,3.5084,3.5087,0,0,0,0,0,0,3.4834,3.4837,3.4907,3.4908,3.4844,3.4858,3.486,3.488,3.4881,3.4878,3.4859,3.4853,3.4876,3.488,3.4884,3.4977,3.4883,3.4886,3.4888,3.5081,3.5085,3.5088,0,0,0,0,0,0,3.4833,3.4841,3.4906,3.4872,3.4878,3.4863,3.4886,3.4882,3.4893,3.4882,3.4878,3.4874,3.4874,3.4879,3.4934,3.4977,3.4888,3.4891,3.5077,3.5082,3.5086,3.5166,0,0,0,0,0,0,3.483,3.4841,3.4873,3.4873,3.4881,3.4957,3.4889,3.4884,3.4899,3.4892,3.4894,3.4892,3.4872,3.4929,3.4937,3.498,3.4894,3.5073,3.5079,3.5085,3.516,3.5173,3.5185,0,0,0,0,0,3.4827,3.4894,3.4875,3.4883,3.492,3.496,3.4964,3.494,3.4903,3.4934,3.4927,3.4892,3.4972,3.4935,3.4944,3.4989,3.507,3.5077,3.5084,3.5154,3.5171,3.5185,0,0,0,0,0,0,3.4899,3.4894,3.4872,3.4941,3.4952,3.4948,3.4986,3.4959,3.4979,3.4971,3.494,3.4941,3.5001,3.5,3.496,3.5066,3.5014,3.5024,3.5064,3.508,3.5092,3.509,3.4896,0,0,0,0,0,3.4923,3.4957,3.495,3.5012,3.5018,3.5002,3.5018,3.4999,3.5008,3.5012,3.5008,3.5017,3.5044,3.5062,3.5087,3.516,3.5158,3.5195,3.5208,3.5218,3.5226,3.5263,3.5278,3.5112,3.5112,3.5111,0,0,3.4973,3.4974,3.4997,3.5026,3.5032,3.5066,3.5006,3.5045,3.5069,3.5017,3.5068,3.5066,3.5074,3.5138,3.5166,3.5139,3.5272,3.5227,3.5236,3.5238,3.5272,3.5288,3.5302,3.5116,3.5116,3.5115,0,0,3.508,3.5086,3.5137,3.5144,3.5153,3.5142,3.5154,3.5155,3.5152,3.5203,3.5164,3.5193,3.524,3.5247,3.5257,3.5367,3.5335,3.5376,3.5441,3.5477,3.549,3.5502,3.5539,3.5553,3.5384,3.5384,3.5384,0,3.514,3.5191,3.5166,3.5208,3.5221,3.5177,3.5227,3.5235,3.5252,3.5262,3.5232,3.529,3.5293,3.5356,3.5383,3.5394,3.5405,3.5374,3.5491,3.5502,3.5512,3.5547,3.5562,3.5389,3.5388,3.5388,3.5388,0,3.5263,3.5299,3.534,3.5357,3.5375,3.5421,3.5402,3.5424,3.5403,3.5395,3.5446,3.5448,3.5471,3.5485,3.5466,3.5546,3.5529,3.5496,3.5442,3.5533,3.5566,3.5579,3.5396,3.5394,3.5393,3.5392,0,0,3.5415,3.5419,3.5434,3.5441,3.5448,3.5475,3.5518,3.5542,3.5559,3.5573,3.5607,3.5648,3.5617,3.5629,3.561,3.5642,3.5727,3.5604,3.5604,3.5625,3.5813,3.5837,3.5853,3.5707,3.5709,3.5711,3.5812,0,3.5519,3.5594,3.5573,3.5648,3.5679,3.5638,3.5676,3.5683,3.5677,3.5702,3.5694,3.5723,3.5681,3.5687,3.5718,3.571,3.5764,3.5703,3.5736,3.5738,3.5733,3.587,3.5895,3.599,3.5825,3.5827,3.5828,0,3.565,3.5669,3.5747,3.5748,3.576,3.5795,3.5813,3.5839,3.5846,3.5839,3.5852,3.5826,3.5867,3.5816,3.5871,3.583,3.5843,3.5842,3.5845,3.5845,3.5787,3.5872,3.602,3.6033,3.5848,3.5847,3.5845,0,3.5751,3.5795,3.5847,3.5855,3.5858,3.5882,3.5884,3.5889,3.5904,3.5921,3.593,3.5951,3.5963,3.5979,3.5959,3.5924,3.6018,3.5964,3.6011,3.6012,3.6031,3.6029,3.6181,3.6043,3.6043,3.6043,3.6042,0,3.5867,3.5916,3.5892,3.5924,3.5976,3.5952,3.6004,3.6002,3.6007,3.6036,3.6002,3.603,3.6003,3.6029,3.6014,3.6061,3.6067,3.6061,3.6056,3.6063,3.6064,3.6069,3.6061,3.6046,3.6046,3.6045,3.6044,0,3.5987,3.5974,3.6027,3.6026,3.6026,3.6065,3.6063,3.6092,3.6083,3.6121,3.6128,3.6114,3.6142,3.6125,3.6154,3.6143,3.6205,3.6192,3.6202,3.6198,3.6244,3.6239,3.6403,3.6422,3.6274,3.6276,3.6277,0,3.6062,3.6098,3.6101,3.6118,3.6123,3.6152,3.6167,3.6144,3.6161,3.6173,3.62,3.6225,3.6244,3.6291,3.6283,3.6304,3.629,3.6346,3.6293,3.6298,3.6288,3.6285,3.6288,3.6356,3.6358,3.6359,3.636,0,3.6195,3.6186,3.6209,3.6231,3.625,3.6265,3.6278,3.6294,3.6271,3.6291,3.632,3.6335,3.6364,3.6389,3.6408,3.6409,3.638,3.6377,3.6389,3.6395,3.6398,3.6395,3.6229,3.6373,3.6372,3.6371,3.637,3.637,3.6293,3.6322,3.6329,3.6356,3.6363,3.6375,3.6401,3.6396,3.642,3.6442,3.6427,3.6461,3.6467,3.6488,3.6493,3.6518,3.6495,3.6513,3.6516,3.652,3.6526,3.6397,3.6522,3.6521,3.6521,3.652,3.652,0,3.6422,3.6424,3.6449,3.6467,3.6488,3.6461,3.6474,3.6492,3.6523,3.6531,3.655,3.6583,3.6607,3.6601,3.6622,3.6644,3.6631,3.665,3.6647,3.6647,3.6546,3.6533,3.666,3.666,3.666,3.666,3.666,3.6659,3.6491,3.654,3.6532,3.6583,3.6584,3.6617,3.6626,3.6637,3.6643,3.6681,3.6701,3.6697,3.6699,3.6721,3.6741,3.6739,3.6747,3.6771,3.6763,3.6668,3.6655,3.6641,3.6629,3.6773,3.6774,3.6862,3.6863,3.6863]}]]